Hourly Weather Muravka

Today, 19 September, Sunday

Time Temperature Precipitation Wind Pressure Humidity
00:00 +17°C° 0 mm 4 mps 746 mmHg 60%
01:00 +17°C° 0 mm 4 mps 746 mmHg 62%
02:00 +18°C° 0 mm 4 mps 746 mmHg 65%
03:00 +17°C° 0 mm 5 mps 745 mmHg 69%
04:00 +17°C° 0 mm 5 mps 745 mmHg 73%
05:00 +17°C° 0 mm 5 mps 745 mmHg 76%
06:00 +19°C° 0.1 mm 6 mps 745 mmHg 77%
07:00 +19°C° 0.1 mm 6 mps 744 mmHg 78%
08:00 +19°C° 0 mm 6 mps 744 mmHg 79%
09:00 +19°C° 4 mm 6 mps 744 mmHg 82%
10:00 +19°C° 4 mm 6 mps 744 mmHg 84%
11:00 +19°C° 4 mm 6 mps 744 mmHg 87%
12:00 +20°C° 2 mm 6 mps 744 mmHg 82%
13:00 +21°C° 2 mm 5 mps 744 mmHg 77%
14:00 +21°C° 2 mm 5 mps 744 mmHg 72%
15:00 +21°C° 0.7 mm 5 mps 744 mmHg 72%
16:00 +21°C° 0.7 mm 4 mps 744 mmHg 72%
17:00 +20°C° 0.7 mm 4 mps 743 mmHg 71%
18:00 +20°C° 0.2 mm 4 mps 744 mmHg 74%
19:00 +19°C° 0.2 mm 3 mps 744 mmHg 76%
20:00 +18°C° 0.2 mm 3 mps 744 mmHg 79%
21:00 +18°C° 0 mm 3 mps 744 mmHg 78%
22:00 +17°C° 0 mm 2 mps 744 mmHg 77%
23:00 +17°C° 0 mm 2 mps 744 mmHg 76%

Tomorrow, 20 September, Monday

Time Temperature Precipitation Wind Pressure Humidity
00:00 +17°C° 0 mm 2 mps 744 mmHg 77%
01:00 +16°C° 0 mm 3 mps 744 mmHg 78%
02:00 +16°C° 0 mm 3 mps 744 mmHg 80%
03:00 +14°C° 0 mm 3 mps 744 mmHg 82%
04:00 +14°C° 0 mm 4 mps 744 mmHg 84%
05:00 +13°C° 0 mm 4 mps 744 mmHg 86%
06:00 +13°C° 0 mm 5 mps 745 mmHg 79%
07:00 +14°C° 0 mm 5 mps 745 mmHg 73%
08:00 +14°C° 0 mm 6 mps 745 mmHg 66%
09:00 +15°C° 0 mm 6 mps 746 mmHg 59%
10:00 +16°C° 0 mm 6 mps 746 mmHg 51%
11:00 +17°C° 0 mm 6 mps 746 mmHg 44%
12:00 +19°C° 0 mm 6 mps 746 mmHg 43%
13:00 +18°C° 0 mm 7 mps 746 mmHg 43%
14:00 +20°C° 0 mm 7 mps 746 mmHg 42%
15:00 +19°C° 0 mm 6 mps 746 mmHg 44%
16:00 +17°C° 0 mm 6 mps 746 mmHg 46%
17:00 +17°C° 0 mm 5 mps 746 mmHg 49%
18:00 +17°C° 0 mm 4 mps 747 mmHg 51%
19:00 +16°C° 0 mm 3 mps 747 mmHg 54%
20:00 +14°C° 0 mm 3 mps 747 mmHg 57%
21:00 +14°C° 0 mm 2 mps 747 mmHg 59%
22:00 +14°C° 0 mm 2 mps 748 mmHg 61%
23:00 +13°C° 0 mm 2 mps 748 mmHg 63%

Day after tomorrow, 21 September, Tuesday

Time Temperature Precipitation Wind Pressure Humidity
00:00 +13°C° 0 mm 2 mps 748 mmHg 64%
01:00 +12°C° 0 mm 2 mps 748 mmHg 66%
02:00 +12°C° 0 mm 2 mps 748 mmHg 67%
03:00 +10°C° 0 mm 2 mps 748 mmHg 69%
04:00 +10°C° 0 mm 2 mps 748 mmHg 72%
05:00 +10°C° 0 mm 2 mps 748 mmHg 74%
06:00 +10°C° 0 mm 3 mps 748 mmHg 72%
07:00 +11°C° 0 mm 3 mps 749 mmHg 69%
08:00 +12°C° 0 mm 3 mps 749 mmHg 67%
09:00 +13°C° 0 mm 3 mps 749 mmHg 64%
10:00 +14°C° 0 mm 3 mps 749 mmHg 60%
11:00 +16°C° 0 mm 3 mps 749 mmHg 57%
12:00 +15°C° 0 mm 4 mps 748 mmHg 57%
13:00 +15°C° 0 mm 4 mps 748 mmHg 58%
14:00 +14°C° 0 mm 4 mps 748 mmHg 58%
15:00 +13°C° 0 mm 4 mps 749 mmHg 62%
16:00 +13°C° 0 mm 4 mps 749 mmHg 66%
17:00 +12°C° 0 mm 5 mps 749 mmHg 69%
18:00 +11°C° 0 mm 4 mps 749 mmHg 68%
19:00 +11°C° 0 mm 4 mps 750 mmHg 66%
20:00 +10°C° 0 mm 4 mps 750 mmHg 64%
21:00 +8°C° 0 mm 4 mps 750 mmHg 64%
22:00 +8°C° 0 mm 3 mps 750 mmHg 64%
23:00 +7°C° 0 mm 3 mps 750 mmHg 64%

22 September, Wednesday

Time Temperature Precipitation Wind Pressure Humidity
00:00 +7°C° 0 mm 3 mps 750 mmHg 68%
01:00 +7°C° 0 mm 3 mps 750 mmHg 72%
02:00 +7°C° 0 mm 3 mps 750 mmHg 75%
03:00 +7°C° 0 mm 3 mps 750 mmHg 76%
04:00 +7°C° 0 mm 3 mps 750 mmHg 77%
05:00 +8°C° 0 mm 3 mps 750 mmHg 77%
06:00 +8°C° 0 mm 3 mps 750 mmHg 76%
07:00 +8°C° 0 mm 3 mps 751 mmHg 74%
08:00 +8°C° 0 mm 3 mps 751 mmHg 73%
09:00 +9°C° 0 mm 3 mps 751 mmHg 68%
10:00 +10°C° 0 mm 3 mps 751 mmHg 64%
11:00 +10°C° 0 mm 2 mps 751 mmHg 59%
12:00 +12°C° 0 mm 2 mps 751 mmHg 57%
13:00 +12°C° 0 mm 2 mps 750 mmHg 55%
14:00 +12°C° 0 mm 2 mps 750 mmHg 54%
15:00 +12°C° 0 mm 2 mps 750 mmHg 54%
16:00 +10°C° 0 mm 2 mps 750 mmHg 54%
17:00 +11°C° 0 mm 1 mps 750 mmHg 54%
18:00 +11°C° 0 mm 1 mps 750 mmHg 55%
19:00 +11°C° 0 mm 1 mps 750 mmHg 56%
20:00 +10°C° 0 mm 0 mps 750 mmHg 56%
21:00 +9°C° 0 mm 0 mps 750 mmHg 57%
22:00 +10°C° 0 mm 1 mps 750 mmHg 58%
23:00 +10°C° 0 mm 1 mps 750 mmHg 59%

23 September, Thursday

Time Temperature Precipitation Wind Pressure Humidity
00:00 +10°C° 0 mm 1 mps 749 mmHg 60%
01:00 +10°C° 0 mm 1 mps 749 mmHg 61%
02:00 +10°C° 0 mm 1 mps 749 mmHg 61%
03:00 +10°C° 0 mm 1 mps 749 mmHg 63%
04:00 +9°C° 0 mm 1 mps 749 mmHg 64%
05:00 +9°C° 0 mm 1 mps 749 mmHg 66%
06:00 +10°C° 0 mm 1 mps 749 mmHg 63%
07:00 +11°C° 0 mm 1 mps 749 mmHg 61%
08:00 +11°C° 0 mm 1 mps 749 mmHg 58%
09:00 +12°C° 0 mm 1 mps 749 mmHg 54%
10:00 +13°C° 0 mm 1 mps 748 mmHg 49%
11:00 +14°C° 0 mm 2 mps 748 mmHg 45%
12:00 +15°C° 0 mm 1 mps 748 mmHg 43%
13:00 +15°C° 0 mm 1 mps 747 mmHg 41%
14:00 +16°C° 0 mm 1 mps 747 mmHg 39%
15:00 +15°C° 0 mm 1 mps 747 mmHg 41%
16:00 +15°C° 0 mm 1 mps 747 mmHg 43%
17:00 +14°C° 0 mm 1 mps 747 mmHg 45%
18:00 +14°C° 0 mm 1 mps 747 mmHg 48%
19:00 +13°C° 0 mm 1 mps 747 mmHg 50%
20:00 +13°C° 0 mm 1 mps 747 mmHg 52%
21:00 +12°C° 0 mm 1 mps 746 mmHg 55%
22:00 +12°C° 0 mm 2 mps 746 mmHg 57%
23:00 +12°C° 0 mm 2 mps 746 mmHg 60%

24 September, Friday

Time Temperature Precipitation Wind Pressure Humidity
00:00 +10°C° 0.9 mm 2 mps 746 mmHg 67%
01:00 +10°C° 0.9 mm 2 mps 746 mmHg 75%
02:00 +9°C° 0.9 mm 2 mps 746 mmHg 82%
03:00 +9°C° 1 mm 3 mps 746 mmHg 83%
04:00 +9°C° 1 mm 3 mps 746 mmHg 84%
05:00 +8°C° 1 mm 3 mps 746 mmHg 85%
06:00 +8°C° 0.2 mm 3 mps 746 mmHg 83%
07:00 +9°C° 0.2 mm 3 mps 746 mmHg 81%
08:00 +8°C° 0.2 mm 4 mps 746 mmHg 79%
09:00 +8°C° 0 mm 4 mps 746 mmHg 75%
10:00 +8°C° 0 mm 4 mps 747 mmHg 71%
11:00 +10°C° 0 mm 4 mps 747 mmHg 66%
12:00 +10°C° 0 mm 5 mps 747 mmHg 59%
13:00 +12°C° 0 mm 5 mps 747 mmHg 52%
14:00 +13°C° 0 mm 5 mps 746 mmHg 45%
15:00 +12°C° 0 mm 5 mps 747 mmHg 46%
16:00 +12°C° 0 mm 5 mps 747 mmHg 48%
17:00 +10°C° 0 mm 5 mps 747 mmHg 49%
18:00 +9°C° 0 mm 5 mps 747 mmHg 52%
19:00 +10°C° 0 mm 4 mps 748 mmHg 54%
20:00 +9°C° 0 mm 3 mps 748 mmHg 57%
21:00 +10°C° 0 mm 4 mps 748 mmHg 56%
22:00 +10°C° 0 mm 4 mps 748 mmHg 55%
23:00 +10°C° 0 mm 4 mps 748 mmHg 54%
Show more

We Need Your Consent

Meteoprog and our Service Providers may store and access personal data such as cookies, device identifiers or other similar technologies on your device and process such data to personalise content and ads, as well as provide social media features and to analyse the traffic.

  • Store and/or access information on your device

    Cookies, device identifiers or other information can be stored or accessed on your device for the purposes indicated above.

  • Personalised ads and content, ad and content measurement, audience insights, and products development

    Ads and content can be personalised based on a profile. More data can be added to better personalise ads and content. Ad and content performance can be measured. Insights about the audience who saw the ads and content can be derived. Such data can be used to develop or improve user’s experience, systems and software.

By clicking ‘I Agree’ you will allow the use of indicated cookies, device identifiers, web beacons or other similar technologies. Your settings can be changed in the browser on your device.

For certain purposes, legitimate interests may be relied on, rather than consent. You can read more about this in our Privacy and Cookie Policy.